Погода в Хамельне

Германия     52°06′20″N   9°21′06″E
темп.,
°C
ветер,
м/с
пор.,
м/с
влажн.,
%
обл.,
%
осадки,
мм/ч
давл.,
гПа
погр.,
м
18 мая, вт
вт1823:00+8зюз3109888 0.1 1007306
02:00+8з499899 0.1 1009520
05:00+5зюз249936 0.0 1011102
08:00+8зюз259599 0.0 1012366
11:00+9з348592 0.4 1012545
14:00+11юз4485100 1.1 1012751
17:00+9з2591100 1.1 1012309
20:00+9з1193100 1.5 101322
19 мая, ср
ср1923:00+7зюз119589 0.3 101411
02:00+5зюз219769 0.3 101516
05:00+4юз229814 0.0 101519
08:00+7зюз249434 0.0 1016268
11:00+12зюз457340 0.3 10161116
14:00+11зюз469047 2.5 1015863
17:00+12з5788100 1.8 1015884
20:00+10з389395 3.5 1015418
20 мая, чт
чт2023:00+7юз229695 0.2 101733
02:00+6зюз129980 0.8 101734
05:00+7з229997 0.1 1019181
08:00+8з249398 0.1 1020467
11:00+11зюз346834 0.1 10211116
14:00+14зюз565593 0.2 10201847
17:00+14зюз3652100 0.0 10191529
20:00+12зюз3870100 0.1 1018386
21 мая, пт
пт2123:00+9ююз2691100 0.3 1018136
02:00+8ю2491100 0.3 101672
05:00+9ююз51384100 0.0 1013700
08:00+8ююз61496100 3.6 1011908
11:00+10ю61296100 2.6 1009862
14:00+10ююз51196100 3.3 1008915
17:00+11ююз51093100 0.9 1006990
20:00+11ююз51191100 1.4 1005838
22 мая, сб
сб2223:00+8ююз3994100 0.0 1004245
02:00+8ю31095100 0.1 1003340
05:00+8ююз41391100 0.1 1003631
08:00+11юз6137627 0.1 10021256
11:00+13юз81464100 0.1 10031704
14:00+10юз71477100 0.4 10031370
17:00+8юз61292100 0.8 10051009
20:00+8юз41096100 1.3 1006917